Tracking 18984 objects as of 24-Feb-2018
HD Live streaming from Space Station
objects crossing your sky now

COSMOS 1805

Track COSMOS 1805 now!
10-day predictions
COSMOS 1805 is classified as:


NORAD ID: 17191
Int'l Code: 1986-097A
Perigee: 534.9 km
Apogee: 539.3 km
Inclination: 82.5 °
Period: 95.2 minutes
Semi major axis: 6908 km
RCS: 9.467 m2 (large)
Launch date: December 10, 1986
Source: Commonwealth of Independent States (former USSR) (CIS)
Launch site: PLESETSK MISSILE AND SPACE COMPLEX (PKMTR)
aabbcc
Your satellite tracking list
Your tracking list is empty




NASA's NSSDC Master Catalog

Two Line Element Set (TLE):
1 17191U 86097A   18054.33623521  .00000188  00000-0  91671-5 0  9998
2 17191  82.4751 142.0813 0003147 300.7566  59.3355 15.12044060701594
Source of the keplerian elements: AFSPC